Location: Bittelbronn
(48.4454°N, 8.5870°E)
Time: 15:14:58
(UTC+00:00)

Cosmos 1953 - Pass Details

Date: 16 August 2024
Orbit: 504 x 523 km, 82.5° (Epoch: 18 September)

Event Time Altitude Azimuth Distance (km) Brightness Sun altitude
Exits shadow 01:47:01 10° 133° (SE) 1,713 4.7 -20.9°
Maximum altitude 01:49:43 20° 87° (E) 1,256 4.6 -20.6°
Drops below altitude 10° 01:52:32 10° 40° (NE) 1,762 6.1 -20.3°
Sets 01:55:06 0° 23° (NNE) 2,662 7.2 -20.1°
